GFSNIL_prec_cthk_099.txt.gz
RH
72 82 84 88 88 90 91 94 97 96 93 98 97 97 96 91 93 92 94 92 99 96
85 87 95 95 96 94 95 96 98 98 98 97 98 99 98 96 95 93 92 95 97 95
94 96 96 98 96 96 97 96 96 98 97 98 98 98 99 99 98 96 98 96 92 96
91 92 94 95 96 95 97 97 98 97 96 97 97 98 97 98 97 98 98 98 99 96
78 82 89 83 78 78 81 81 85 90 93 95 96 97 97 95 96 97 98 98 99 98
68 64 65 67 64 63 62 59 61 63 67 70 76 82 88 93 96 98 96 94 95 95
56 54 52 52 52 53 53 53 53 50 49 51 53 55 57 63 73 80 86 91 95 95
35 32 31 30 29 29 29 30 31 34 37 40 41 44 45 47 49 54 60 71 74 79
23 21 20 19 19 19 20 21 20 22 23 26 30 33 36 37 39 41 44 49 54 61
18 17 16 14 14 13 13 13 13 13 14 15 17 20 25 30 33 39 41 42 46 50
14 13 13 13 13 13 13 13 12 12 13 13 14 14 14 17 24 30 38 42 47 48
12 12 12 12 12 12 12 12 13 14 14 14 14 15 15 16 16 20 29 35 42 47
11 11 10 10 10 10 11 11 11 12 13 14 15 16 18 19 28 26 24 27 35 43
9 9 9 10 10 10 10 10 11 13 13 12 13 13 15 19 26 31 35 32 29 36

GFSNIL_prec_cthk_102.txt.gz
RH
63 64 66 66 77 77 78 80 80 83 86 95 95 95 96 99 96 94 94 94 91 81
73 71 72 77 81 86 89 84 84 90 92 96 96 98 97 98 96 95 94 94 87 83
78 84 82 84 92 94 92 92 92 92 95 96 97 98 98 98 99 98 96 91 94 94
78 81 90 93 89 88 89 90 90 92 96 97 98 97 98 97 96 98 99 99 96 93
86 85 85 91 91 80 74 74 77 77 79 82 92 94 97 97 96 98 95 97 98 97
78 75 73 75 72 72 73 71 69 68 66 66 69 71 75 83 90 94 96 99 98 95
64 62 60 59 58 55 55 56 53 53 53 54 54 54 54 56 59 64 72 83 89 93
38 34 30 28 26 25 24 24 25 26 26 28 30 30 33 38 41 43 46 50 54 62
18 17 16 15 14 14 14 14 14 13 13 13 14 14 15 17 21 28 32 34 37 43
14 13 12 12 11 11 11 11 10 10 10 11 11 12 12 13 13 14 15 20 27 34
12 11 10 9 9 8 8 8 8 8 9 9 9 10 11 12 13 13 14 14 16 22
10 9 9 9 9 9 9 9 8 8 8 8 8 8 8 8 9 11 12 15 17 19
12 12 12 11 11 11 11 11 11 10 10 11 11 10 9 9 9 9 9 10 19 25
15 15 14 13 13 13 14 14 13 13 13 14 15 16 15 14 13 12 12 13 16 20

GFSNIL_prec_cthk_105.txt.gz
RH
78 67 60 65 73 73 74 72 74 72 76 79 77 76 80 89 92 93 93 97 98 97
69 66 69 67 70 75 77 79 81 80 82 84 82 84 90 93 94 95 94 97 99 96
63 67 72 73 73 69 78 76 79 81 82 88 88 90 90 93 93 96 98 95 98 97
63 62 65 75 82 82 77 86 81 80 82 86 87 88 90 92 96 95 97 97 99 99
88 77 74 74 87 88 91 82 74 73 73 79 79 78 85 87 93 94 97 99 97 97
86 83 81 77 75 78 76 71 70 69 67 64 64 66 67 70 74 77 83 92 95 97
74 68 63 61 60 59 57 55 55 55 55 54 52 50 49 49 51 55 57 60 66 75
37 33 32 29 24 27 19 17 16 17 15 16 16 16 18 19 21 24 27 32 37 42
16 15 13 12 10 9 8 7 7 7 7 7 7 8 9 9 10 11 12 14 16 19
12 10 8 7 7 8 8 8 8 8 8 8 7 7 7 7 8 8 9 10 11 12
9 9 10 10 11 11 11 11 11 11 11 10 10 10 9 9 8 7 7 7 7 8
12 13 13 13 14 14 14 14 14 14 13 13 13 12 12 12 12 11 10 8 7 8
15 15 14 14 15 15 17 17 17 17 18 17 18 18 18 17 17 15 14 12 11 9
17 16 16 16 17 18 19 20 21 21 21 21 21 20 20 20 20 22 23 23 22 19

GFSNIL_prec_cthk_108.txt.gz
RH
86 77 71 72 68 70 71 68 69 66 69 72 74 78 80 79 81 80 79 81 84 89
78 75 79 76 74 72 68 72 76 75 75 75 75 77 79 79 82 81 87 89 86 94
86 84 84 80 76 74 67 72 75 76 73 74 78 80 83 87 89 89 87 89 92 94
83 76 68 66 69 79 86 85 78 72 76 70 73 80 84 87 90 93 92 91 90 92
80 73 65 54 57 64 67 83 81 80 79 79 83 78 75 83 84 87 89 87 92 98
88 91 90 83 76 71 67 72 77 76 71 69 67 66 66 64 66 68 71 75 81 86
74 72 66 62 59 58 56 56 56 55 53 50 48 51 51 51 51 50 50 53 57 60
46 38 35 32 28 22 19 22 21 19 15 13 16 16 11 16 19 19 21 19 17 20
18 17 14 7 7 6 9 8 7 8 8 8 8 8 8 8 7 7 6 6 6 8
9 7 7 8 9 10 10 10 10 10 10 10 10 9 9 9 9 9 8 8 8 7
9 10 11 12 12 12 13 13 13 13 14 15 15 16 16 16 15 14 12 12 11 10
13 13 13 13 14 14 14 14 15 16 17 18 19 20 21 23 28 29 30 29 24 19
15 15 16 17 19 21 23 23 24 24 24 23 22 22 23 25 30 29 29 30 32 29
21 27 34 34 33 32 30 28 27 26 28 29 31 29 28 28 28 31 30 29 28 27

GFSNIL_prec_cthk_114.txt.gz
RH
86 90 99 93 88 90 98 97 96 93 83 78 68 68 69 69 71 74 74 75 79 82
94 97 98 88 91 97 95 93 88 78 77 73 74 73 72 74 76 75 75 79 83 83
84 81 85 89 90 89 86 80 75 72 68 64 66 64 65 67 70 72 77 75 81 88
82 80 78 74 69 71 68 68 69 71 72 76 70 75 72 72 75 78 76 70 75 75
71 78 81 79 76 69 66 64 64 63 56 56 67 73 74 72 70 75 72 80 86 81
61 60 64 66 67 66 66 72 71 70 58 48 45 50 55 61 64 64 55 57 64 74
43 47 45 38 32 25 27 34 35 30 27 31 35 36 38 43 46 48 45 39 40 39
19 16 13 11 10 14 21 19 13 16 22 21 28 27 26 27 24 20 20 20 22 29
19 13 9 10 10 9 8 8 8 9 9 9 10 10 11 11 14 18 19 16 20 14
20 13 13 13 12 11 11 11 12 12 13 14 15 16 17 17 17 16 16 18 18 19
26 23 22 18 16 16 16 16 16 18 21 24 26 29 29 30 28 28 28 29 30 31
28 28 26 24 23 23 24 25 26 29 31 34 36 41 45 44 40 38 37 37 37 37
20 20 21 23 28 33 35 38 42 42 43 45 47 48 48 48 48 46 44 40 36 35
19 19 19 20 22 23 28 33 38 43 47 47 47 46 45 45 44 42 40 38 34 32

GFSNIL_prec_cthk_117.txt.gz
RH
90 90 97 97 95 92 89 87 84 86 92 94 98 98 93 88 80 76 74 71 72 75
80 86 88 89 88 88 88 89 94 94 94 94 90 90 84 76 77 74 70 71 75 78
82 82 84 76 76 78 81 86 85 84 83 83 80 71 69 72 70 67 65 70 70 70
69 70 76 75 71 71 68 64 63 62 65 64 66 66 64 67 67 66 66 67 69 72
64 60 58 62 64 66 65 66 68 66 59 55 55 58 56 55 61 69 71 65 61 63
25 30 38 43 40 37 36 31 33 41 47 49 47 53 53 47 41 46 48 54 57 62
23 19 14 12 13 13 15 13 17 23 21 23 27 26 24 23 25 28 28 29 33 39
27 22 16 12 11 10 9 8 8 8 8 8 8 9 11 11 14 20 26 30 36 32
35 30 23 21 19 16 15 14 13 12 12 13 13 13 14 15 14 15 15 16 17 21
32 26 24 27 28 28 27 24 22 21 20 20 19 20 23 25 27 29 30 30 30 31
32 24 21 19 20 21 22 25 30 33 34 32 32 33 34 35 38 40 40 40 41 42
27 21 18 17 18 18 20 21 22 25 30 34 39 44 47 56 55 53 51 50 48 45
25 20 18 18 17 18 21 23 27 32 36 38 38 38 39 42 43 43 44 43 45 44
23 18 18 18 20 26 32 34 36 38 40 41 43 45 45 44 47 48 49 48 45 42

GFSNIL_prec_cthk_120.txt.gz
RH
57 63 73 80 89 93 93 95 93 95 94 88 80 70 75 88 97 98 97 99 96 91
64 58 63 71 77 77 85 81 88 92 95 95 92 89 90 92 96 96 95 89 87 82
58 62 59 62 69 71 75 76 77 78 74 86 85 84 88 89 89 86 82 77 74 70
24 29 41 48 47 46 44 52 58 63 66 62 61 64 69 75 75 67 67 68 66 64
24 22 19 15 15 28 33 30 27 25 30 37 50 58 57 55 53 51 46 47 51 56
29 26 22 17 13 11 10 10 14 13 14 21 27 29 29 26 30 36 38 37 36 38
35 32 28 25 22 22 19 15 13 11 10 10 10 14 14 14 19 19 23 26 32 32
36 34 29 23 21 21 22 24 25 24 22 18 16 14 14 13 13 13 12 13 14 15
36 34 28 21 18 17 16 17 18 19 21 24 27 27 25 22 21 21 22 23 25 26
37 34 27 21 18 17 17 16 16 16 17 19 21 23 28 38 42 42 39 36 37 39
40 37 29 23 20 19 18 18 19 19 20 23 27 30 33 39 40 41 43 47 47 46
43 38 28 22 20 19 18 19 21 24 27 31 36 39 41 43 40 39 37 37 38 39
44 36 26 20 18 19 22 25 26 28 30 33 37 38 40 43 44 45 44 45 47 47
44 31 21 19 23 26 26 24 25 29 31 34 38 42 43 43 43 44 46 48 48 49

GFSNIL_prec_cthk_123.txt.gz
RH
46 47 49 47 51 57 59 66 68 75 90 97 97 96 87 84 72 61 57 75 85 97
26 24 28 37 39 42 52 54 60 66 68 71 84 95 95 81 71 69 65 79 82 95
22 21 19 18 20 25 27 29 30 32 39 46 63 66 70 84 84 80 83 89 90 95
26 24 22 20 17 14 12 11 13 15 17 15 20 32 52 62 60 61 72 77 78 77
29 28 27 25 22 20 20 20 18 16 14 11 10 9 16 30 34 33 35 46 54 51
31 30 29 26 23 19 19 19 19 20 22 23 22 18 13 11 12 17 23 25 24 26
32 31 30 28 23 18 17 15 15 15 16 16 17 19 20 22 21 16 12 11 12 13
37 36 34 31 25 20 17 17 17 17 16 16 17 17 17 18 21 25 30 27 21 20
41 39 37 34 27 22 19 18 17 16 16 16 15 15 16 18 22 23 27 32 41 45
43 42 41 38 31 26 22 19 16 16 17 17 19 22 25 28 29 31 34 38 38 37
45 45 45 43 34 26 21 18 18 21 23 23 24 25 28 31 32 33 34 36 38 39
47 48 46 42 32 24 21 22 25 26 24 22 24 26 29 31 34 37 38 38 40 41
49 48 48 39 28 24 28 28 27 25 24 26 25 27 32 32 33 36 36 38 42 45
49 48 46 33 26 32 32 29 26 25 26 25 26 29 30 33 34 32 28 30 35 41

GFSNIL_prec_cthk_126.txt.gz
RH
27 22 19 18 17 19 22 24 24 24 27 32 45 64 85 96 95 90 88 78 70 67
22 21 20 18 16 15 13 12 12 13 13 14 14 13 32 66 87 92 81 79 75 69
21 21 21 21 19 17 16 15 16 16 16 16 16 14 12 12 47 66 75 67 68 70
23 23 24 24 22 20 17 16 16 15 16 16 17 17 17 15 13 14 31 44 46 55
27 26 26 26 25 22 19 17 16 15 15 15 15 15 16 16 17 16 13 12 15 22
32 32 31 30 28 26 22 19 17 16 16 15 14 14 14 15 15 14 14 16 16 16
36 36 36 35 34 31 26 22 20 19 18 16 15 15 15 15 15 15 15 15 16 18
39 40 40 39 37 36 32 27 24 21 19 17 16 16 17 19 21 22 23 24 24 23
40 42 42 41 40 40 35 30 25 22 20 19 20 21 23 24 25 25 25 26 27 29
42 43 42 42 42 42 37 30 25 23 25 26 24 22 23 24 26 27 28 29 30 31
43 44 44 43 42 41 36 28 25 28 31 28 25 24 25 26 26 28 28 28 29 31
47 49 49 47 45 43 34 25 31 34 32 29 26 26 26 27 28 27 28 29 29 29
52 56 55 48 47 43 27 31 35 34 32 30 29 27 28 28 26 27 28 28 29 30
57 64 59 56 51 37 30 35 36 35 33 32 31 31 28 28 28 27 27 32 33 35

GFSNIL_prec_cthk_129.txt.gz
RH
20 18 17 17 16 14 13 11 10 10 11 11 11 11 11 11 15 48 78 85 78 83
19 19 19 19 19 18 16 14 14 14 13 13 13 14 14 13 13 12 35 72 81 71
22 22 22 21 21 21 20 18 16 15 14 14 13 13 13 13 14 13 12 14 29 52
26 26 26 26 26 25 24 21 19 18 17 16 15 15 14 13 12 12 12 12 12 11
30 31 31 31 30 30 29 26 23 21 21 20 19 18 17 14 13 12 12 12 12 12
37 37 37 37 36 34 32 28 27 25 24 23 21 20 18 17 15 15 15 15 16 16
41 39 38 37 37 36 34 31 28 26 26 24 22 21 21 22 21 20 20 20 20 20
43 43 44 42 42 40 37 34 29 25 24 24 24 26 26 25 23 22 23 23 24 24
48 48 47 45 46 45 43 43 35 24 21 24 30 31 29 25 26 26 25 25 25 25
50 53 51 51 52 50 48 50 40 25 21 29 35 33 30 28 28 27 27 26 25 24
51 55 54 54 56 55 55 53 42 27 28 33 37 34 31 31 29 29 29 27 27 26
51 57 57 56 58 59 60 53 47 28 33 39 40 36 33 33 32 31 29 28 27 27
55 59 61 60 60 61 61 61 39 33 40 40 43 39 35 35 34 32 31 30 30 31
60 62 62 61 62 62 65 64 34 45 44 48 45 43 38 37 36 34 34 35 37 35

GFSNIL_prec_cthk_132.txt.gz
RH
25 19 18 17 17 17 17 16 15 15 14 14 14 14 14 13 13 13 10 12 33 47
27 22 21 21 21 20 20 20 19 18 17 16 16 16 16 16 15 14 12 10 9 13
28 25 25 25 25 25 25 25 23 21 19 19 19 19 19 18 17 16 14 11 10 9
34 33 31 32 32 32 31 29 26 23 20 18 19 20 22 21 19 18 16 14 12 11
39 39 38 38 38 38 37 34 30 26 22 19 18 19 21 23 22 20 19 18 16 15
38 40 40 41 41 41 41 40 38 33 28 23 21 21 20 24 28 27 25 23 20 19
36 38 40 41 44 45 44 44 42 38 32 26 24 24 20 28 32 31 28 26 25 24
36 39 42 42 44 48 49 49 48 43 39 30 26 25 24 31 33 34 32 30 27 26
39 41 45 47 47 49 49 52 52 48 44 37 28 26 32 31 35 38 35 32 30 28
40 46 49 53 54 54 52 56 56 52 46 41 28 35 39 32 38 42 37 34 33 30
37 43 50 54 58 60 56 59 59 55 50 40 33 43 38 34 44 47 40 36 34 33
39 41 47 54 61 67 60 61 62 60 53 35 44 43 41 41 50 50 44 39 37 36
44 44 45 53 62 70 63 65 64 63 61 41 43 46 45 46 53 54 49 44 42 40
47 47 48 58 65 69 71 76 76 71 62 40 45 49 56 59 59 58 53 49 48 43

GFSNIL_prec_cthk_138.txt.gz
RH
22 20 22 24 25 25 25 26 26 25 25 23 21 19 17 17 17 17 17 17 18 19
24 24 26 28 30 30 29 29 30 30 29 27 24 21 19 18 18 18 19 20 19 20
29 28 27 29 31 33 32 31 32 33 33 32 29 25 23 21 19 18 20 21 21 21
32 28 26 27 31 34 35 33 34 36 38 38 36 32 29 26 23 21 20 21 21 24
35 34 35 37 39 40 40 40 40 42 43 43 42 39 34 32 30 26 23 24 25 26
31 34 35 35 37 39 40 41 42 44 47 48 48 46 41 38 34 31 30 30 29 28
33 33 34 35 36 37 40 43 46 49 52 54 56 57 53 48 44 39 31 28 30 31
37 38 39 41 42 44 44 45 52 55 59 63 62 61 56 49 44 38 31 29 32 33
42 42 42 43 45 49 51 54 59 62 58 56 57 57 56 53 49 41 34 33 37 36
44 46 48 49 51 53 54 49 46 49 55 59 58 61 61 59 53 46 44 41 40 39
45 47 50 51 45 44 43 41 41 43 50 56 57 69 70 67 57 56 52 48 48 48
42 35 29 29 31 33 35 37 39 42 46 52 60 65 77 72 68 61 54 48 51 50
30 28 27 28 29 31 33 35 39 42 48 55 58 69 80 80 75 66 64 56 54 59
28 30 34 35 35 35 37 41 43 46 53 56 60 72 86 87 79 67 66 59 57 65